CW6157 Weather Reports


Display with metric or nautical units.
time (UTC)temp
F
wind
direction
speed
MPH
gust
MPH
rain 1hr
in
rain 24hr
in
rain mn
in
humidity
%
barometer
mb
20260506193233 58 73 0.0 2.0 0.00 0.00 0.00 32 1007.7
20260506191743 59 73 1.0 3.0 0.00 0.00 0.00 31 1007.7
20260506190234 59 73 2.0 3.0 0.00 0.00 0.00 31 1007.8
20260506184745 59 73 1.0 4.0 0.00 0.00 0.00 31 1007.7
20260506183235 59 73 4.0 6.0 0.00 0.00 0.00 31 1007.7
20260506181739 60 99 2.0 6.0 0.00 0.00 0.00 30 1007.8
20260506180300 60 109 3.0 7.0 0.00 0.00 0.00 30 1007.2
20260506174733 60 75 2.0 5.0 0.00 0.07 0.00 32 1008.1
20260506173257 60 83 3.0 7.0 0.00 0.07 0.00 31 1008.2
20260506171747 60 75 3.0 8.0 0.00 0.07 0.00 31 1007.4
20260506170310 61 128 2.0 7.0 0.00 0.07 0.00 32 1008.2
20260506164757 61 106 2.0 5.0 0.00 0.07 0.00 31 1008.3
20260506163259 61 152 2.0 7.0 0.00 0.07 0.00 31 1008.3
20260506161744 59 61 2.0 8.0 0.00 0.07 0.00 32 1008.3
20260506160239 61 167 2.0 8.0 0.00 0.07 0.00 31 1008.4
20260506154746 60 138 3.0 10.0 0.00 0.07 0.00 34 1007.8
20260506153236 59 62 1.0 6.0 0.00 0.07 0.00 33 1008.8
20260506151805 60 155 0.0 7.0 0.00 0.07 0.00 33 1008.9
20260506150304 59 117 4.0 10.0 0.00 0.07 0.00 35 1009.1
20260506144800 60 104 1.0 6.0 0.00 0.07 0.00 35 1009.3
20260506143246 59 82 4.0 11.0 0.00 0.07 0.00 36 1009.5
20260506141817 58 47 4.0 7.0 0.00 0.07 0.00 39 1009.7
20260506140242 57 49 7.0 8.0 0.00 0.07 0.00 39 1009.7
20260506134749 58 75 0.0 7.0 0.00 0.07 0.00 38 1009.9
20260506133235 60 157 1.0 5.0 0.00 0.07 0.00 35 1009.9
20260506131742 59 133 4.0 7.0 0.00 0.07 0.00 36 1010.0
20260506130242 57 48 4.0 11.0 0.00 0.07 0.00 41 1010.3
20260506124749 57 40 1.0 5.0 0.00 0.07 0.00 39 1010.2
20260506123236 57 178 0.0 6.0 0.00 0.07 0.00 41 1010.6
20260506121742 56 234 0.0 5.0 0.00 0.07 0.00 44 1010.8
20260506120257 55 291 3.0 7.0 0.00 0.07 0.00 44 1010.9
20260506114747 55 73 1.0 6.0 0.00 0.07 0.00 46 1011.1
20260506113235 54 14 3.0 7.0 0.00 0.07 0.00 47 1010.5
20260506111743 55 329 5.0 7.0 0.00 0.07 0.00 47 1011.2
20260506110258 55 27 1.0 8.0 0.00 0.07 0.00 47 1011.2
20260506104739 54 25 2.0 8.0 0.00 0.07 0.00 47 1010.5
20260506103252 54 58 5.0 7.0 0.00 0.07 0.00 47 1010.6
20260506101756 53 38 3.0 7.0 0.00 0.07 0.00 49 1010.8
20260506100250 52 320 6.0 8.0 0.00 0.07 0.00 50 1010.6
20260506094758 51 54 5.0 12.0 0.00 0.07 0.00 51 1010.6
20260506093241 51 76 1.0 8.0 0.00 0.07 0.00 55 1010.7
20260506091746 51 47 5.0 10.0 0.00 0.07 0.00 54 1010.7
20260506090243 51 34 5.0 9.0 0.00 0.07 0.00 57 1010.7
20260506084810 51 52 3.0 9.0 0.00 0.07 0.00 63 1010.6
20260506083239 50 37 4.0 8.0 0.00 0.07 0.00 66 1010.8
20260506081805 50 38 7.0 10.0 0.00 0.07 0.00 69 1010.6
20260506080239 49 20 5.0 7.0 0.00 0.07 0.00 73 1010.8
20260506073249 47 337 5.0 10.0 0.00 0.07 0.00 76 1011.0
20260506071742 47 27 2.0 3.0 0.00 0.07 0.00 80 1011.0
20260506070235 45 49 2.0 6.0 0.00 0.07 0.00 82 1011.1
20260506061743 44 360 3.0 6.0 0.00 0.07 0.00 83 1011.2
20260506060238 44 360 1.0 2.0 0.00 0.07 0.00 86 1010.5
20260506050254 43 360 2.0 4.0 0.00 0.07 0.00 83 1010.3
20260506044739 44 360 0.0 2.0 0.00 0.07 0.00 83 1010.4
20260506043245 44 360 2.0 3.0 0.00 0.07 0.00 83 1010.4
20260506041736 44 360 0.0 2.0 0.00 0.07 0.00 83 1010.6
20260506040232 44 360 0.0 1.0 0.00 0.07 0.00 82 1010.7
20260506034741 44 360 0.0 0.0 0.00 0.07 0.00 81 1010.6
20260506033255 44 360 0.0 3.0 0.00 0.07 0.00 80 1010.6
20260506031742 45 360 0.0 4.0 0.00 0.07 0.00 79 1010.5
20260506030240 45 360 1.0 7.0 0.00 0.07 0.00 79 1010.4
20260506024820 45 16 3.0 9.0 0.00 0.07 0.00 79 1010.4
20260506023238 45 360 6.0 10.0 0.00 0.07 0.00 78 1010.4
20260506021802 45 337 4.0 12.0 0.00 0.07 0.00 78 1010.4
20260506020235 46 340 7.0 11.0 0.00 0.07 0.00 78 1011.0
20260506014743 46 359 7.0 10.0 0.00 0.07 0.00 80 1011.1
20260506013253 45 330 6.0 10.0 0.00 0.07 0.00 81 1011.2
20260506011738 46 336 6.0 8.0 0.00 0.07 0.00 80 1011.1
20260506010308 46 339 5.0 7.0 0.00 0.07 0.00 79 1011.6
20260506004733 46 333 6.0 10.0 0.00 0.07 0.00 78 1011.6
20260506003257 46 318 5.0 7.0 0.00 0.07 0.00 77 1011.5
20260506001740 47 339 6.0 11.0 0.00 0.07 0.00 77 1011.5
20260506000236 47 330 4.0 11.0 0.00 0.07 0.00 77 1011.7
20260505234739 47 332 7.0 11.0 0.00 0.07 0.00 77 1011.7
20260505233233 47 326 9.0 11.0 0.00 0.07 0.00 77 1011.8
20260505231742 47 322 8.0 12.0 0.00 0.07 0.00 78 1011.8
20260505230233 47 308 7.0 14.0 0.00 0.07 0.00 76 1011.7
20260505224740 48 344 11.0 14.0 0.00 0.07 0.00 75 1011.9
20260505223250 48 319 6.0 11.0 0.00 0.07 0.00 77 1011.9
20260505221738 48 306 5.0 25.0 0.00 0.07 0.00 78 1012.0
20260505220250 48 306 6.0 31.0 0.00 0.07 0.00 79 1012.1
20260505214734 48 306 5.0 28.0 0.00 0.07 0.07 78 1012.0
20260505213258 48 306 11.0 48.0 0.00 0.07 0.07 79 1011.9
20260505211744 48 306 22.0 49.0 0.00 0.07 0.07 79 1011.9
20260505210238 48 298 12.0 50.0 0.00 0.07 0.07 79 1011.3
20260505204752 48 182 30.0 76.0 0.00 0.07 0.07 78 1011.2
20260505203235 49 182 34.0 80.0 0.00 0.07 0.07 77 1011.0
20260505201743 48 154 27.0 63.0 0.00 0.07 0.07 77 1011.0
20260505200240 48 154 9.0 21.0 0.00 0.07 0.07 78 1010.8
20260505194744 48 155 0.0 26.0 0.00 0.07 0.07 79 1010.8